Terminal Aerodrome Forecast
Issued by NWS

Home | Current Version | Previous Version | Graphics & Text | Print | Product List | Glossary On
Versions: 1 2 3 4 5 6 7 8 9 10 11 12 13 14 15 16 17
000
FTUS42 KMHX 210500
TAFOAJ
TAF
KOAJ 210520Z 2106/2206 01008KT 5SM -RA OVC006
     FM210900 02008KT 3SM RA BR BKN004
     FM211300 33007KT 5SM -RA BR OVC004
     FM211700 33010KT P6SM SCT030 SCT100
     FM212300 28006KT P6SM SCT100
      AMD LTD TO CLD VIS AND WIND=

USA.gov is the U.S. government's official web portal to all federal, state and local government web resources and services.